• In India
  • List of Countries
  • For 7 days
  • Water Temperature
  • Satellite Maps
  • Weather Map
  • Weather Widgets
  • user-avatar
    Login

    Hourly Weather Sławno

    Today, 22 October, Monday

    Time Temperature Precipitation Wind Pressure Humidity
    00:00 +7°C° 0 mm 6 mps 765 mmHg 83%
    01:00 +7°C° 0 mm 6 mps 765 mmHg 81%
    02:00 +7°C° 0 mm 6 mps 765 mmHg 82%
    03:00 +7°C° 0 mm 6 mps 764 mmHg 82%
    04:00 +7°C° 0 mm 6 mps 764 mmHg 82%
    05:00 +7°C° 0 mm 6 mps 764 mmHg 82%
    06:00 +7°C° 0 mm 6 mps 764 mmHg 82%
    07:00 +7°C° 0 mm 6 mps 764 mmHg 82%
    08:00 +7°C° 0.3 mm 6 mps 763 mmHg 82%
    09:00 +8°C° 0.3 mm 6 mps 763 mmHg 83%
    10:00 +9°C° 0.3 mm 6 mps 763 mmHg 83%
    11:00 +9°C° 0.3 mm 6 mps 763 mmHg 81%
    12:00 +10°C° 0.3 mm 7 mps 763 mmHg 79%
    13:00 +10°C° 0.3 mm 7 mps 764 mmHg 77%
    14:00 +10°C° 0 mm 7 mps 764 mmHg 74%
    15:00 +10°C° 0 mm 7 mps 764 mmHg 71%
    16:00 +9°C° 0 mm 7 mps 764 mmHg 67%
    17:00 +9°C° 0 mm 7 mps 764 mmHg 69%
    18:00 +8°C° 0 mm 7 mps 764 mmHg 71%
    19:00 +8°C° 0 mm 6 mps 764 mmHg 73%
    20:00 +7°C° 0 mm 6 mps 764 mmHg 74%
    21:00 +7°C° 0 mm 6 mps 764 mmHg 76%
    22:00 +7°C° 0 mm 6 mps 764 mmHg 77%
    23:00 +7°C° 0.1 mm 6 mps 763 mmHg 78%

    Tomorrow, 23 October, Tuesday

    Time Temperature Precipitation Wind Pressure Humidity
    00:00 +6°C° 0.1 mm 7 mps 763 mmHg 78%
    01:00 +6°C° 0.1 mm 7 mps 762 mmHg 79%
    02:00 +6°C° 0.4 mm 8 mps 761 mmHg 79%
    03:00 +6°C° 0.4 mm 9 mps 760 mmHg 80%
    04:00 +6°C° 0.4 mm 10 mps 758 mmHg 80%
    05:00 +4°C° 1.4 mm 11 mps 757 mmHg 81%
    06:00 +4°C° 1.4 mm 12 mps 755 mmHg 82%
    07:00 +4°C° 1.4 mm 13 mps 754 mmHg 83%
    08:00 +5°C° 2.1 mm 13 mps 752 mmHg 84%
    09:00 +7°C° 2.1 mm 13 mps 751 mmHg 85%
    10:00 +7°C° 2.1 mm 13 mps 750 mmHg 87%
    11:00 +8°C° 1.9 mm 13 mps 749 mmHg 85%
    12:00 +9°C° 1.9 mm 13 mps 748 mmHg 84%
    13:00 +10°C° 1.9 mm 13 mps 747 mmHg 83%
    14:00 +10°C° 0.5 mm 12 mps 747 mmHg 80%
    15:00 +10°C° 0.5 mm 12 mps 746 mmHg 77%
    16:00 +9°C° 0.5 mm 12 mps 746 mmHg 74%
    17:00 +9°C° 0.3 mm 12 mps 745 mmHg 74%
    18:00 +9°C° 0.3 mm 12 mps 745 mmHg 74%
    19:00 +9°C° 0.3 mm 12 mps 745 mmHg 74%
    20:00 +9°C° 0.2 mm 12 mps 744 mmHg 72%
    21:00 +8°C° 0.2 mm 12 mps 744 mmHg 69%
    22:00 +8°C° 0.2 mm 13 mps 743 mmHg 67%
    23:00 +8°C° 0.3 mm 13 mps 743 mmHg 65%

    Day after tomorrow, 24 October, Wednesday

    Time Temperature Precipitation Wind Pressure Humidity
    00:00 +7°C° 0.3 mm 13 mps 744 mmHg 62%
    01:00 +6°C° 0.3 mm 14 mps 744 mmHg 60%
    02:00 +5°C° 0.1 mm 13 mps 745 mmHg 57%
    03:00 +5°C° 0.1 mm 13 mps 746 mmHg 54%
    04:00 +4°C° 0.1 mm 12 mps 747 mmHg 51%
    05:00 +4°C° 0 mm 12 mps 747 mmHg 51%
    06:00 +4°C° 0 mm 12 mps 748 mmHg 51%
    07:00 +3°C° 0 mm 12 mps 749 mmHg 51%
    08:00 +4°C° 0 mm 12 mps 749 mmHg 50%
    09:00 +5°C° 0 mm 13 mps 750 mmHg 50%
    10:00 +5°C° 0 mm 13 mps 751 mmHg 49%
    11:00 +7°C° 0 mm 13 mps 751 mmHg 48%
    12:00 +7°C° 0 mm 12 mps 752 mmHg 47%
    13:00 +7°C° 0 mm 12 mps 753 mmHg 46%
    14:00 +7°C° 0 mm 11 mps 753 mmHg 48%
    15:00 +6°C° 0 mm 10 mps 754 mmHg 50%
    16:00 +6°C° 0 mm 9 mps 754 mmHg 51%
    17:00 +6°C° 0 mm 8 mps 754 mmHg 54%
    18:00 +6°C° 0 mm 8 mps 755 mmHg 56%
    19:00 +5°C° 0 mm 7 mps 755 mmHg 58%
    20:00 +5°C° 0 mm 6 mps 755 mmHg 61%
    21:00 +5°C° 0 mm 6 mps 755 mmHg 64%
    22:00 +5°C° 0 mm 5 mps 754 mmHg 67%
    23:00 +5°C° 0.1 mm 5 mps 754 mmHg 70%

    25 October, Thursday

    Time Temperature Precipitation Wind Pressure Humidity
    00:00 +6°C° 0.1 mm 5 mps 753 mmHg 74%
    01:00 +6°C° 0.1 mm 5 mps 752 mmHg 78%
    02:00 +6°C° 0.8 mm 7 mps 751 mmHg 82%
    03:00 +6°C° 0.8 mm 8 mps 750 mmHg 87%
    04:00 +7°C° 0.8 mm 9 mps 749 mmHg 92%
    05:00 +8°C° 0.5 mm 10 mps 748 mmHg 87%
    06:00 +9°C° 0.5 mm 11 mps 748 mmHg 81%
    07:00 +9°C° 0.5 mm 12 mps 747 mmHg 76%
    08:00 +9°C° 0.1 mm 12 mps 747 mmHg 74%
    09:00 +9°C° 0.1 mm 11 mps 748 mmHg 72%
    10:00 +9°C° 0.1 mm 11 mps 748 mmHg 70%
    11:00 +9°C° 0.1 mm 11 mps 748 mmHg 68%
    12:00 +11°C° 0.1 mm 11 mps 749 mmHg 66%
    13:00 +11°C° 0.1 mm 11 mps 749 mmHg 64%
    14:00 +11°C° 0 mm 10 mps 749 mmHg 66%
    15:00 +9°C° 0 mm 10 mps 750 mmHg 68%
    16:00 +10°C° 0 mm 9 mps 750 mmHg 70%
    17:00 +10°C° 0 mm 9 mps 750 mmHg 71%
    18:00 +9°C° 0 mm 8 mps 751 mmHg 72%
    19:00 +9°C° 0 mm 8 mps 751 mmHg 73%
    20:00 +8°C° 0 mm 7 mps 752 mmHg 74%
    21:00 +8°C° 0 mm 6 mps 752 mmHg 75%
    22:00 +7°C° 0 mm 5 mps 752 mmHg 75%
    23:00 +7°C° 0 mm 4 mps 752 mmHg 77%

    26 October, Friday

    Time Temperature Precipitation Wind Pressure Humidity
    00:00 +7°C° 0 mm 3 mps 753 mmHg 78%
    01:00 +7°C° 0 mm 3 mps 753 mmHg 80%
    02:00 +7°C° 0 mm 2 mps 753 mmHg 80%
    03:00 +7°C° 0 mm 2 mps 753 mmHg 81%
    04:00 +7°C° 0 mm 2 mps 753 mmHg 81%
    05:00 +7°C° 0.1 mm 2 mps 753 mmHg 83%
    06:00 +7°C° 0.1 mm 3 mps 752 mmHg 84%
    07:00 +7°C° 0.1 mm 3 mps 752 mmHg 86%
    08:00 +7°C° 0.1 mm 4 mps 752 mmHg 83%
    09:00 +8°C° 0.1 mm 4 mps 752 mmHg 81%
    10:00 +9°C° 0.1 mm 5 mps 752 mmHg 79%
    11:00 +9°C° 0.2 mm 5 mps 751 mmHg 77%
    12:00 +9°C° 0.2 mm 6 mps 751 mmHg 76%
    13:00 +9°C° 0.2 mm 6 mps 750 mmHg 74%
    14:00 +9°C° 0.3 mm 6 mps 750 mmHg 77%
    15:00 +9°C° 0.3 mm 6 mps 749 mmHg 79%
    16:00 +10°C° 0.3 mm 6 mps 749 mmHg 81%
    17:00 +10°C° 0.2 mm 7 mps 748 mmHg 82%
    18:00 +10°C° 0.2 mm 7 mps 748 mmHg 83%
    19:00 +10°C° 0.2 mm 7 mps 747 mmHg 84%
    20:00 +9°C° 0.1 mm 7 mps 747 mmHg 84%
    21:00 +9°C° 0.1 mm 7 mps 747 mmHg 85%
    22:00 +9°C° 0.1 mm 7 mps 746 mmHg 85%
    23:00 +9°C° 0.1 mm 7 mps 746 mmHg 85%

    27 October, Saturday

    Time Temperature Precipitation Wind Pressure Humidity
    00:00 +8°C° 0.1 mm 7 mps 746 mmHg 86%
    01:00 +8°C° 0.1 mm 7 mps 746 mmHg 86%
    02:00 +8°C° 0.1 mm 7 mps 746 mmHg 86%
    03:00 +8°C° 0.1 mm 7 mps 746 mmHg 86%
    04:00 +8°C° 0.1 mm 7 mps 745 mmHg 86%
    05:00 +6°C° 0.1 mm 7 mps 746 mmHg 85%
    06:00 +6°C° 0.1 mm 7 mps 746 mmHg 84%
    07:00 +7°C° 0.1 mm 6 mps 746 mmHg 84%
    08:00 +6°C° 0 mm 7 mps 746 mmHg 79%
    09:00 +6°C° 0 mm 7 mps 746 mmHg 75%
    10:00 +8°C° 0 mm 7 mps 747 mmHg 71%
    11:00 +8°C° 0 mm 7 mps 747 mmHg 67%
    12:00 +9°C° 0 mm 6 mps 747 mmHg 64%
    13:00 +9°C° 0 mm 6 mps 747 mmHg 60%
    14:00 +8°C° 0 mm 5 mps 747 mmHg 63%
    15:00 +8°C° 0 mm 5 mps 747 mmHg 65%
    16:00 +7°C° 0 mm 4 mps 747 mmHg 68%
    17:00 +8°C° 0 mm 3 mps 747 mmHg 70%
    18:00 +8°C° 0 mm 3 mps 747 mmHg 71%
    19:00 +7°C° 0 mm 3 mps 748 mmHg 72%
    20:00 +7°C° 0 mm 2 mps 748 mmHg 73%
    21:00 +7°C° 0 mm 2 mps 748 mmHg 74%
    22:00 +7°C° 0 mm 2 mps 748 mmHg 74%
    23:00 +7°C° 0 mm 2 mps 748 mmHg 74%

    28 October, Sunday

    Time Temperature Precipitation Wind Pressure Humidity
    00:00 +8°C° 0 mm 1 mps 748 mmHg 74%
    01:00 +8°C° 0 mm 1 mps 748 mmHg 74%
    02:00 +8°C° 0 mm 1 mps 748 mmHg 75%
    03:00 +7°C° 0 mm 1 mps 748 mmHg 76%
    04:00 +7°C° 0 mm 1 mps 748 mmHg 77%
    05:00 +7°C° 0.1 mm 1 mps 748 mmHg 79%
    06:00 +7°C° 0.1 mm 1 mps 748 mmHg 80%
    07:00 +7°C° 0.1 mm 1 mps 748 mmHg 81%
    08:00 +8°C° 0.2 mm 1 mps 748 mmHg 80%
    09:00 +7°C° 0.2 mm 2 mps 748 mmHg 78%
    10:00 +8°C° 0.2 mm 2 mps 748 mmHg 77%
    11:00 +8°C° 0.5 mm 2 mps 748 mmHg 77%
    12:00 +8°C° 0.5 mm 3 mps 748 mmHg 78%
    13:00 +8°C° 0.5 mm 3 mps 748 mmHg 79%
    14:00 +7°C° 0.8 mm 3 mps 748 mmHg 82%
    15:00 +7°C° 0.8 mm 3 mps 748 mmHg 85%
    16:00 +7°C° 0.8 mm 3 mps 749 mmHg 87%
    17:00 +7°C° 0.6 mm 3 mps 749 mmHg 88%
    18:00 +7°C° 0.6 mm 2 mps 749 mmHg 89%
    19:00 +7°C° 0.6 mm 2 mps 750 mmHg 90%
    20:00 +5°C° 0.8 mm 3 mps 750 mmHg 90%
    21:00 +5°C° 0.8 mm 3 mps 750 mmHg 89%
    22:00 +5°C° 0.8 mm 4 mps 751 mmHg 88%
    23:00 +5°C° 1.2 mm 5 mps 751 mmHg 86%
    Show more